User: anonymous   Login
Location: Unspecified
(0.0000°N, 0.0000°E)
Time: 17:48:54
(UTC+00:00)
Language:

USA 283 - Orbit

View from above orbital plane
View from above orbital plane
View from above satellite
View from above satellite

Ground track
Ground track

The orbit data is extracted from the following two-line orbital elements,

1 43339U 18036A   20049.59188302 -.00000335  00000-0  00000+0 0  9992
2 43339   0.0166 101.3694 0001081 280.9738 112.8155  1.00269929  2146
Epoch (UTC): 18 February 2020 14:12:18
Eccentricity: 0.0001081
inclination: 0.0166°
perigee height: 35782 km
apogee height: 35791 km
right ascension of ascending node: 101.3694°
argument of perigee: 280.9738°
revolutions per day: 1.00269929
mean anomaly at epoch: 112.8155°
orbit number at epoch: 214

The dashed part of the orbit path shows where the satellite is in the earth's shadow,  

DLR